Location: Pasadena, ca
(34.1243°N, 118.1037°W)
Time: 01:44:33
(UTC-08:00)

Tiangong 2 - Visible Passes

Search period start: 25 November 2017 00:00
Search period end: 05 December 2017 00:00
Orbit: 386 x 392 km, 42.8° (Epoch: 24 November)

Date Brightness Start Highest point End Pass type
(mag) Time Alt. Az. Time Alt. Az. Time Alt. Az.
25 Nov 2.4 05:46:14 10° SW 05:49:16 42° SE 05:52:20 10° ENE visible
26 Nov 3.5 04:49:40 16° S 04:51:11 21° SE 04:53:42 10° E visible
27 Nov 1.0 05:27:33 20° WSW 05:29:35 89° NNW 05:32:48 10° ENE visible
28 Nov 3.3 04:32:46 26° E 04:32:46 26° E 04:34:28 10° ENE visible
28 Nov 2.2 06:05:26 10° W 06:08:18 29° NNW 06:11:10 10° NE visible
29 Nov 1.5 05:10:06 45° NNW 05:10:06 45° NNW 05:13:02 10° NE visible
30 Nov 2.7 05:47:14 16° NW 05:48:46 21° NNW 05:51:20 10° NE visible
01 Dec 3.3 04:51:55 18° NNE 04:51:55 18° NNE 04:53:09 10° NE visible
02 Dec 3.0 05:28:49 17° NNW 05:29:15 18° N 05:31:33 10° NE visible
03 Dec 3.1 06:05:59 10° NW 06:08:17 18° N 06:10:33 10° NE visible
04 Dec 3.3 05:10:04 17° N 05:10:04 17° N 05:11:53 10° NE visible
